sat.trackr.live / text

‹ back to catalog

STARLINK-5920

NORAD 55935 · 2023-037X

PAYLOAD ACTIVE UNKNOWN

§ Identity

Operator
Country
US
Launch date
2023-03-17
Launch site
AFWTR
Launch vehicle
Mass (kg)
RCS (m²)

Purposes: comms

External: N2YO · Heavens-Above · Gunter

§ Orbital elements

Epoch: 2026-09-20T22:00:03.000096Z

Period
95.65 min
Inclination
70.0015°
Eccentricity
0.0005442
Mean motion
15.05509341 rev/d
Perigee alt
546.2 km
Apogee alt
553.7 km
Semi-major
6,928.1 km
B*
2.1100e-3
RAAN
152.1839°
Arg perigee
289.1493°
Mean anomaly
92.9118°
Rev number
576

§ Raw data

STARLINK-59201 55935U 23037X   26263.91670139  .00030454  00000+0  21100-2 0  99982 55935  70.0015 152.1839 0005442 289.1493  92.9118 15.05509341  5763

JSON: /api/v1/satellites/55935 · /tle

For live sub-satellite position, see the globe view (requires WebGL).

§ Visibility from observer

Set your observer location to see the next 7 days of passes ≥ 10°. The values pass through the URL so the page stays shareable.

No JS? Fill the form by hand. The geolocation button needs JavaScript.